Louisville, KY

7:56 PM EDT on May 25, 2017 (GMT -0400)
Louisville International-Standiford

Weather History for KSDF - January, 2012

Change the Weather History Date:

Monday, January 16, 2012

  Actual Average Record
Temperature  
Mean Temperature 44 °F 35 °F  
Max Temperature 59 °F 43 °F 71 °F (1990)
Min Temperature 28 °F 27 °F -10 °F (1977)
Degree Days  
Heating Degree Days 21 30  
Month to date heating degree days 432 480  
Since 1 July heating degree days 1767 2056  
Cooling Degree Days 0 0  
Month to date cooling degree days 0 0  
Year to date cooling degree days 0 0  
Moisture  
Dew Point 37 °F    
Average Humidity 62    
Maximum Humidity 78    
Minimum Humidity 45    
Precipitation  
Precipitation 0.01 in 0.11 in 1.35 in (1885)
Month to date precipitation 1.15 1.69  
Year to date precipitation 1.15 1.69  
Snow  
Snow 0.00 in 0.10 in 8.30 in (1978)
Month to date snowfall 1.8 1.7  
Since 1 July snowfall 1.8 4.5  
Snow Depth 0.00 in    
Sea Level Pressure  
Sea Level Pressure 30.09 in    
Wind  
Wind Speed 13 mph (South)    
Max Wind Speed 28 mph    
Max Gust Speed 37 mph    
Visibility 9 miles    
Events Rain    
T = Trace of Precipitation, MM = Missing Value Source: NWS Daily Summary

Daily Weather History Graph

Daily Weather History Graph

Search for Another Location

Airport or City:

Trip Planner

Search our weather history database for the weather conditions in past years. The results will help you decide how hot, cold, wet, or windy it might be!

Date:

Astronomy

Jan. 16, 2012 Rise Set
Actual Time 7:57 AM EST 5:47 PM EST
Civil Twilight 7:29 AM EST 6:16 PM EST
Nautical Twilight 6:56 AM EST 6:48 PM EST
Astronomical Twilight 6:25 AM EST 7:20 PM EST
Moon 1:07 AM EST (1/16) 11:59 AM EST (1/16)
Length of Visible Light 10h 47m
Length of Day
9h 49m
Waning Gibbous, 46% of the Moon is Illuminated
Jan 16
Waning Gibbous
Jan 23
New
Jan 30
First Quarter
Feb 7
Full
Feb 14
Last Quarter

Hourly Weather History & Observations

Time (EST) Temp. Windchill Dew Point Humidity Pressure Visibility Wind Dir Wind Speed Gust Speed Precip Events Conditions
12:56 AM 28.0 °F 20.8 °F 23.0 °F 81% 30.26 in 10.0 mi SE 6.9 mph - N/A   Clear
1:56 AM 28.9 °F 21.1 °F 23.0 °F 78% 30.23 in 10.0 mi SE 8.1 mph - N/A   Scattered Clouds
2:56 AM 33.1 °F 28.7 °F 24.1 °F 70% 30.24 in 10.0 mi SE 4.6 mph - N/A   Mostly Cloudy
3:56 AM 35.1 °F 29.3 °F 24.1 °F 64% 30.22 in 10.0 mi SSE 6.9 mph - N/A   Mostly Cloudy
4:56 AM 41.0 °F 34.7 °F 25.0 °F 53% 30.20 in 10.0 mi South 10.4 mph - N/A   Overcast
5:56 AM 39.0 °F 34.8 °F 25.0 °F 57% 30.19 in 10.0 mi South 5.8 mph - N/A   Mostly Cloudy
6:56 AM 41.0 °F 35.8 °F 26.1 °F 55% 30.18 in 10.0 mi SSE 8.1 mph - N/A   Overcast
7:56 AM 46.0 °F 39.9 °F 27.0 °F 47% 30.16 in 10.0 mi South 13.8 mph - N/A   Overcast
8:56 AM 48.0 °F - 28.0 °F 46% 30.15 in 10.0 mi South 13.8 mph 23.0 mph N/A   Overcast
9:56 AM 50.0 °F - 30.0 °F 46% 30.14 in 10.0 mi South 13.8 mph - N/A   Overcast
10:05 AM 48.2 °F - 32.0 °F 54% 30.14 in 2.0 mi South 15.0 mph 20.7 mph 0.00 in Rain Light Rain
10:09 AM 48.2 °F - 33.8 °F 58% 30.14 in 2.0 mi South 13.8 mph 24.2 mph 0.00 in Rain Light Rain
10:24 AM 46.4 °F 40.4 °F 37.4 °F 71% 30.14 in 7.0 mi South 13.8 mph - 0.00 in Rain Light Rain
10:56 AM 46.0 °F 40.6 °F 39.0 °F 76% 30.15 in 8.0 mi South 11.5 mph - 0.01 in Rain Light Rain
11:56 AM 46.9 °F - 41.0 °F 80% 30.12 in 10.0 mi South 13.8 mph - 0.00 in   Overcast
12:56 PM 48.0 °F - 39.0 °F 71% 30.08 in 10.0 mi South 15.0 mph 24.2 mph N/A   Overcast
1:56 PM 48.9 °F - 41.0 °F 74% 30.03 in 10.0 mi South 19.6 mph 26.5 mph N/A   Overcast
2:56 PM 50.0 °F - 43.0 °F 77% 30.00 in 10.0 mi South 21.9 mph 34.5 mph N/A   Overcast
3:56 PM 52.0 °F - 45.0 °F 77% 29.99 in 10.0 mi South 13.8 mph 26.5 mph N/A   Overcast
4:56 PM 53.1 °F - 46.0 °F 77% 29.97 in 10.0 mi South 17.3 mph 23.0 mph N/A   Overcast
5:56 PM 55.0 °F - 46.9 °F 74% 29.96 in 10.0 mi South 13.8 mph 27.6 mph N/A   Overcast
6:56 PM 55.9 °F - 48.0 °F 75% 29.96 in 10.0 mi SSW 18.4 mph 29.9 mph N/A   Overcast
7:56 PM 55.9 °F - 48.0 °F 75% 29.95 in 10.0 mi SSW 17.3 mph 27.6 mph N/A   Overcast
8:56 PM 55.9 °F - 48.0 °F 75% 29.95 in 10.0 mi SSW 18.4 mph 28.8 mph N/A   Overcast
9:56 PM 57.9 °F - 48.0 °F 70% 29.94 in 10.0 mi SSW 17.3 mph 31.1 mph N/A   Overcast
10:56 PM 59.0 °F - 48.0 °F 67% 29.94 in 10.0 mi SSW 16.1 mph 31.1 mph N/A   Overcast
11:56 PM 59.0 °F - 48.0 °F 67% 29.91 in 10.0 mi SSW 15.0 mph 26.5 mph 0.00 in   Light Drizzle